Yendi Airport

Jump to: basic info | weather | comments

Related pages: nearby airports | nearby navaids | notams | map

Basic information (top)

Codes: DGLY
Location: lon 9.425000, lat -0.004722, elev 2,408 ft / 734 m msl
Status: small_airport
Scheduled airline service: no
Links: Wikipedia Mobile

Weather (top)

Current conditions for Tamale Airport 51nm (95km) W (rec'd 2009/12/22 13:00Z):

DGLE 221300Z 14006KTS 6000M HZ 36/18 Q1012

Airport forecast for Niamtougou International Airport 68nm (126km) ENE (rec'd 2014/09/02 00:27Z):

TAF TAF DXNG 022300Z 0300/0324 24006KT 9999 SCT006 
      BECMG 0306/0308 BKN006 
      TEMPO 0315/0321 TS BKN006 SCT016CB PROB40 4000 TSRA 
      BECMG 0319/0321 SCT010

Latest comments (top)

No comments yet for Yendi Airport

More... (top)

See also NOTAMs and nearby airports and navaids, or visit the Yendi Airport page at the main OurAirports website..